Location: Wanzleben
(52.0609°N, 11.4408°E)
Time: 01:34:16
(UTC+00:00)

COSMOS 2406 - Pass Details

Date: 21 January 2021
Orbit: 841 x 865 km, 71.0° (Epoch: 05 March)

Event Time Altitude Azimuth Distance (km) Brightness Sun altitude
Rises 17:11:47 0° 329° (NNW) 3,460 6.6 -13.4°
Reaches altitude 10° 17:14:33 10° 340° (NNW) 2,520 5.7 -13.8°
Maximum altitude 17:19:42 32° 42° (NE) 1,456 4.0 -14.5°
Enters shadow 17:22:26 22° 87° (E) 1,819 4.3 -15.0°
